weather.gov     
National Weather Service

Regional Weather Roundup
NWS Homepage
This page is being discontinued on March 12, 2014.
The same data is available at this site. Please update your bookmarks.
Thank you, and we apologize for the inconvenience.
Please send an email to SR-SRH.Webmaster@noaa.gov with any concerns.


Current Version
Previous Version:    01  02  03  04  05  06  07  08  09  10  11  12  13  14  15  16  17  18  19  20  21  22  23  24  25  26  
[Printable]
151
ASUS43 KDMX 250907
RWRIA

WEATHER ROUNDUP FOR IOWA
NATIONAL WEATHER SERVICE DES MOINES IA
400 AM CDT SAT OCT 25 2014

NOTE: "FAIR" INDICATES FEW OR NO CLOUDS BELOW 12,000 FEET WITH NO
SIGNIFICANT WEATHER AND/OR OBSTRUCTIONS TO VISIBILITY.

* - THESE STATIONS ARE NOT NWS STATIONS...THUS NOT UNDER NWS
QUALITY CONTROL.  THEY ALSO DO NOT REPORT WEATHER SUCH
AS PRECIPITATION OR FOG.

IAZ001>003-012>014-020>022-031>034-043>046-251000-
   NORTHWEST IOWA

CITY           SKY/WX    TMP DP  RH WIND       PRES   REMARKS
CARROLL *      CLEAR     48  45  87 NW6       30.02R
CHEROKEE *     CLEAR     45  45 100 NE5       30.04S
DENISON *      CLEAR     45  45 100 CALM      30.02R FOG
LE MARS *      CLEAR     45  43  93 NE5       30.06R
ORANGE CITY *  CLEAR     55  41  58 NE3       30.05R
SHELDON *      CLEAR     48  41  76 N8        30.04S
SIOUX CITY     CLEAR     44  41  89 W3        30.04R
SPENCER        MOCLDY    46  40  79 N6        30.04S
STORM LAKE *   CLEAR     54  41  62 N9        30.04S
$$

IAZ055>058-069>071-079>083-090>094-251000-
   SOUTHWEST IOWA

CITY           SKY/WX    TMP DP  RH WIND       PRES   REMARKS
AUDUBON *      CLEAR     45  39  81 CALM      30.03S
CLARINDA *     FOG       46  46 100 CALM      30.03S VSB 1/2
COUNCIL BLFS * CLEAR     55  50  82 N7        30.01S
CRESTON *      CLEAR     55  52  88 NW5       30.02R
HARLAN  *      CLEAR     45  45 100 CALM      30.05F
LAMONI           N/A     53  52  96 NW7       30.01R
RED OAK *      FOG       45  45 100 CALM      30.02S VSB 1/4
SHENANDOAH *   FOG       46  46 100 CALM      30.02S VSB 0
$$

IAZ047>049-059>061-072>074-084-251000-
   CENTRAL IOWA

CITY           SKY/WX    TMP DP  RH WIND       PRES   REMARKS
AMES           CLEAR     45  43  93 N3        30.00R FOG
ANKENY *       CLEAR     45  45 100 CALM      29.99S FOG
CHARITON *     CLEAR     54  54 100 NW6       29.99S
DES MOINES     CLEAR     53  50  89 N6        29.99F
GRINNELL*      CLEAR     50  50 100 W7        29.99R FOG
KNOXVILLE *    CLEAR     50  50 100 NW8       29.98S FOG
MARSHALLTOWN   CLEAR     46  46 100 W8        29.97S FOG
PELLA *        CLEAR     52  52 100 NW7       30.00S FOG
PERRY *          N/A     48  46  93 NW5       30.01R
$$

IAZ004>006-015-016-023>025-035-036-251000-
   NORTH CENTRAL IOWA

CITY           SKY/WX    TMP DP  RH WIND       PRES   REMARKS
ALGONA *       CLEAR     55  43  62 NW7       30.03R
CLARION *      CLEAR     46  46 100 NW7       30.02R
ESTHERVILLE    MOCLDY    53  40  61 NW8       30.03R
FORT DODGE *   CLEAR     52  43  71 N6        30.03S
MASON CITY     CLEAR     47  42  83 W8        30.01R
FOREST CITY *  CLEAR     52  43  71 NW5       30.00S
IOWA FALLS *     N/A     50  45  81 NW5       29.99F
$$

IAZ007>011-017>019-026>030-037>042-050>054-066-251000-
   NORTHEAST IOWA

CITY           SKY/WX    TMP DP  RH WIND       PRES   REMARKS
CEDAR RAPIDS   FOG       51  51 100 NW5       29.95F VSB<1/4
CHARLES CITY * MOCLDY    48  46  93 W8        29.98R
CLINTON *      CLOUDY    55  54  94 W8        29.96S VSB 1/2
DECORAH *      PTCLDY    52  50  93 CALM      29.94S
DUBUQUE        MOCLDY    56  56 100 W6        29.93F FOG
MONTICELLO *   CLOUDY    57  57 100 W6        29.94F FOG
OELWEIN *      FOG       48  48 100 W6        29.97R VSB 1/4
WATERLOO       PTCLDY    48  47  96 NW5       29.96S FOG
$$

IAZ064-065-067-068-078-251000-
   EAST CENTRAL IOWA

CITY           SKY/WX    TMP DP  RH WIND       PRES   REMARKS
DAVENPORT      FOG       54  53  97 W7        29.95F VSB 1/4
IOWA CITY      FOG       51  51 100 W3        29.97F VSB 1/4
MT. PLEASANT * FOG       54  54 100 W3        29.97S VSB 1/4
MUSCATINE *    FOG       55  54  94 NW7       29.95F VSB 0
QUAD CITIES    FOG       56  55  97 W7        29.94S VSB 3/4
$$

IAZ062-063-075>077-085>089-095>099-251000-
   SOUTHEAST IOWA

CITY           SKY/WX    TMP DP  RH WIND       PRES   REMARKS
BURLINGTON     FOG       54  54 100 NW5       29.96R VSB 1/4
FAIRFIELD *    CLOUDY    52  52 100 W6        29.97F
FORT MADISON * FOG       55  55 100 W5        29.97R VSB 0
KEOKUK *       MOCLDY    54  54 100 CALM      29.96R
OSKALOOSA *    FOG       46  46 100 W7        29.99R VSB 1/4
CENTERVILLE *  FOG       48  48 100 W3        30.00S VSB 1
OTTUMWA        CLEAR     51  50  96 NW6       29.98R FOG
WASHINGTON *   FOG       50  50 100 W3        29.96F VSB<1/4
$$

ABBREVIATIONS USED IN REMARKS
   TC - TEMPERATURES IN CELSIUS
  WCI - WIND CHILL INDEX
   HX - HEAT INDEX
  VSB - VISIBILITY
$$





U.S. Dept. of Commerce
NOAA National Weather Service
1325 East West Highway
Silver Spring, MD 20910
E-mail: w-nws.webmaster@noaa.gov
Page last modified: May 16, 2007
NATIONAL WEATHER SERVICE: for Safety, for Work, for Fun - FOR LIFE